Meteo Giornale » Osservazioni meteo Italia » Paganella

ore: 22:55 - Osservazioni Meteo Paganella
Lat. 46° 9' N Lon. 11° 2' E Alt. 2125 metri s.l.m.

nuvoloso Europe/Rome

6 °C

Nuvoloso

Temp. 24 Ore

4 °C

9 °C

Sud-Ovest

25.9 Km/h

Dew point 4 °C

Umidità 86 %

Visibilità  10 Km

Il sole sorge alle ore 06:09

Il sole tramonta alle ore 20:17

Data e Ora Cielo e Fenomeni T °C DP °C Um. % Pres. hPa Vis. km Vento km/h
Oggi h: 22:55 nuvoloso Nuvoloso 6 4 86 1018 10 SO 25.9
Oggi h: 21:55 nuvoloso Nuvoloso 6 5 93 1018 10 O/SO 27.8
Oggi h: 19:55 poco_nuvoloso Poco Nuvoloso 8 3 70 1018 10 S/SO 14.8
Oggi h: 18:55 poco_nuvoloso Poco Nuvoloso 8 5 81 1019 10 O/SO 20.3
Oggi h: 17:55 poco_nuvoloso Poco Nuvoloso 8 5 81 1019 10 SO 25.9
Oggi h: 16:55 poco_nuvoloso Poco Nuvoloso 8 4 75 1019 10 S/SO 22.2
Oggi h: 15:55 poco_nuvoloso Poco Nuvoloso 9 4 70 1020 10 S/SO 20.3
Oggi h: 14:55 poco_nuvoloso Poco Nuvoloso 9 4 70 1020 10 S 24
Oggi h: 13:55 poco_nuvoloso Poco Nuvoloso 8 4 75 1020 10 S/SO 14.8
Oggi h: 12:55 nebbia Nebbia 7 5 87 1020 0.9 N 5.5
Oggi h: 11:55 nebbia Nebbia 6 5 93 1021 0.1 S 11.1
Oggi h: 10:55 nebbia Nebbia 5 4 93 1020 0.1 S 14.8
Oggi h: 09:55 nebbia Nebbia 5 4 93 1020 0.1 SO 29.6
Oggi h: 08:55 nebbia Nebbia 4 4 100 1020 0 S/SO 33.3
Oggi h: 07:55 nebbia Nebbia 4 4 100 1020 0.1 S/SO 31.5
Oggi h: 06:55 nebbia Nebbia 4 4 100 1020 0.6 SO 27.8
Oggi h: 05:55 nebbia Nebbia 4 4 100 1020 0 SO 16.7
Oggi h: 03:55 nebbia Nebbia 5 5 100 1020 0 S/SO 18.5
Oggi h: 02:55 nebbia Nebbia 5 5 100 1021 0.2 S 14.8
Oggi h: 01:55 nebbia Nebbia 5 5 100 1021 0.2 S 14.8
Oggi h: 00:55 nebbia Nebbia 5 5 100 1022 0.6 S/SO 11.1
Ieri h: 23:55 nebbia Nebbia 6 6 100 1022 0.6 S 20.3